N24EB KPVD-KMVY

Flight info

Callsign N24EB
Flight time 0h 27m
Altitude 3000
Route V167 TUTOR COKBI
Aircraft DA40/L-SBG/C

Departure

Time 2026-04-27 23:34
Airport Rhode Island T. F. Green International Airport (KPVD)

Arrival

Time 2026-04-28 00:01
Airport Martha's Vineyard Airport (KMVY)
Time Latitude Longitude Altitude Speed Heading
2026-04-27 23:22 41.72101 -71.43798 59 ft 0 kts 128°
2026-04-27 23:30 41.72041 -71.43692 60 ft 24 kts 122°
2026-04-27 23:30 41.71937 -71.43476 56 ft 30 kts 122°
2026-04-27 23:30 41.71860 -71.43327 55 ft 17 kts 143°
2026-04-27 23:30 41.71748 -71.43365 56 ft 19 kts 212°
2026-04-27 23:31 41.71654 -71.43443 56 ft 9 kts 210°
2026-04-27 23:31 41.71615 -71.43476 60 ft 11 kts 215°
2026-04-27 23:31 41.71515 -71.43560 61 ft 22 kts 211°
2026-04-27 23:31 41.71452 -71.43586 61 ft 0 kts 163°
2026-04-27 23:32 41.71418 -71.43543 62 ft 24 kts 126°
2026-04-27 23:33 41.71450 -71.43420 65 ft 14 kts 14°
2026-04-27 23:33 41.71735 -71.43204 53 ft 80 kts 31°
2026-04-27 23:33 41.72260 -71.42763 249 ft 95 kts 28°
2026-04-27 23:33 41.72813 -71.42219 449 ft 102 kts 41°
2026-04-27 23:34 41.73129 -71.41356 662 ft 107 kts 77°
2026-04-27 23:34 41.73252 -71.40355 887 ft 110 kts 79°
2026-04-27 23:34 41.73389 -71.39340 1114 ft 112 kts 80°
2026-04-27 23:34 41.73442 -71.38297 1343 ft 113 kts 88°
2026-04-27 23:35 41.73478 -71.37245 1568 ft 114 kts 87°
2026-04-27 23:35 41.73513 -71.36184 1795 ft 114 kts 87°
2026-04-27 23:35 41.73550 -71.35117 1992 ft 118 kts 87°
2026-04-27 23:35 41.73589 -71.33947 2007 ft 132 kts 87°
2026-04-27 23:36 41.73632 -71.32685 2008 ft 139 kts 87°
2026-04-27 23:36 41.73587 -71.31406 2036 ft 138 kts 108°
2026-04-27 23:36 41.73258 -71.30252 2234 ft 129 kts 110°
2026-04-27 23:36 41.72984 -71.29128 2429 ft 125 kts 108°
2026-04-27 23:37 41.72730 -71.28026 2624 ft 123 kts 108°
2026-04-27 23:37 41.72481 -71.26932 2825 ft 122 kts 108°
2026-04-27 23:37 41.72236 -71.25842 2992 ft 124 kts 107°
2026-04-27 23:37 41.71974 -71.24677 3002 ft 136 kts 107°
2026-04-27 23:38 41.71696 -71.23444 3010 ft 141 kts 107°
2026-04-27 23:38 41.71413 -71.22179 3009 ft 143 kts 107°
2026-04-27 23:38 41.71126 -71.20902 3009 ft 144 kts 107°
2026-04-27 23:38 41.70839 -71.19616 3009 ft 144 kts 107°
2026-04-27 23:39 41.70549 -71.18329 3008 ft 145 kts 107°
2026-04-27 23:39 41.70179 -71.17113 3003 ft 143 kts 130°
2026-04-27 23:39 41.69334 -71.16473 3001 ft 141 kts 163°
2026-04-27 23:39 41.68420 -71.15993 3004 ft 142 kts 158°
2026-04-27 23:40 41.67522 -71.15443 3005 ft 142 kts 157°
2026-04-27 23:40 41.66628 -71.14885 3005 ft 142 kts 157°
2026-04-27 23:40 41.65735 -71.14325 3006 ft 142 kts 156°
2026-04-27 23:40 41.64842 -71.13762 3006 ft 142 kts 156°
2026-04-27 23:41 41.63949 -71.13200 3007 ft 142 kts 156°
2026-04-27 23:41 41.63056 -71.12636 3007 ft 142 kts 156°
2026-04-27 23:41 41.62162 -71.12073 3007 ft 142 kts 156°
2026-04-27 23:41 41.61266 -71.11509 3007 ft 142 kts 156°
2026-04-27 23:42 41.60371 -71.10946 3007 ft 142 kts 156°
2026-04-27 23:42 41.59484 -71.10387 3006 ft 140 kts 156°
2026-04-27 23:42 41.58607 -71.09835 3004 ft 139 kts 156°
2026-04-27 23:42 41.57732 -71.09285 3003 ft 139 kts 156°
2026-04-27 23:43 41.56860 -71.08735 3003 ft 139 kts 156°
2026-04-27 23:43 41.55986 -71.08186 3002 ft 139 kts 156°
2026-04-27 23:43 41.55115 -71.07639 3002 ft 138 kts 156°
2026-04-27 23:43 41.54243 -71.07091 3002 ft 138 kts 156°
2026-04-27 23:44 41.53371 -71.06543 3002 ft 138 kts 156°
2026-04-27 23:44 41.52501 -71.05996 3002 ft 138 kts 156°
2026-04-27 23:44 41.51630 -71.05450 3002 ft 138 kts 156°
2026-04-27 23:44 41.50758 -71.04902 3002 ft 139 kts 156°
2026-04-27 23:45 41.49886 -71.04355 3002 ft 139 kts 156°
2026-04-27 23:45 41.49025 -71.03815 3002 ft 139 kts 156°
2026-04-27 23:45 41.48152 -71.03268 3002 ft 139 kts 157°
2026-04-27 23:45 41.47279 -71.02720 3003 ft 139 kts 156°
2026-04-27 23:46 41.46407 -71.02174 3002 ft 139 kts 156°
2026-04-27 23:46 41.45534 -71.01627 3002 ft 138 kts 157°
2026-04-27 23:46 41.44662 -71.01081 3002 ft 139 kts 156°
2026-04-27 23:46 41.43789 -71.00534 3002 ft 139 kts 157°
2026-04-27 23:47 41.42915 -70.99987 3003 ft 139 kts 157°
2026-04-27 23:47 41.42042 -70.99441 3002 ft 139 kts 156°
2026-04-27 23:47 41.41168 -70.98894 3003 ft 139 kts 157°
2026-04-27 23:47 41.40295 -70.98348 3003 ft 139 kts 157°
2026-04-27 23:48 41.39421 -70.97802 3002 ft 139 kts 157°
2026-04-27 23:48 41.38548 -70.97255 3002 ft 139 kts 156°
2026-04-27 23:48 41.37675 -70.96710 3002 ft 139 kts 157°
2026-04-27 23:48 41.36802 -70.96165 3002 ft 138 kts 157°
2026-04-27 23:49 41.35930 -70.95620 3002 ft 139 kts 157°
2026-04-27 23:49 41.35055 -70.95074 3003 ft 139 kts 157°
2026-04-27 23:49 41.34182 -70.94529 3003 ft 139 kts 156°
2026-04-27 23:49 41.33308 -70.93984 3003 ft 139 kts 157°
2026-04-27 23:50 41.32435 -70.93439 3002 ft 139 kts 156°
2026-04-27 23:50 41.31562 -70.92895 3003 ft 139 kts 157°
2026-04-27 23:50 41.30689 -70.92351 3002 ft 139 kts 157°
2026-04-27 23:50 41.29817 -70.91807 3002 ft 139 kts 157°
2026-04-27 23:51 41.28943 -70.91263 3002 ft 139 kts 157°
2026-04-27 23:51 41.28069 -70.90719 3003 ft 139 kts 157°
2026-04-27 23:51 41.27196 -70.90175 3003 ft 139 kts 156°
2026-04-27 23:51 41.26442 -70.89390 3000 ft 141 kts 127°
2026-04-27 23:52 41.25985 -70.88240 3000 ft 141 kts 117°
2026-04-27 23:52 41.25521 -70.87061 2832 ft 151 kts 118°
2026-04-27 23:52 41.25022 -70.85805 2490 ft 154 kts 118°
2026-04-27 23:52 41.24530 -70.84556 2151 ft 149 kts 118°
2026-04-27 23:53 41.24082 -70.83419 2098 ft 129 kts 118°
2026-04-27 23:53 41.23690 -70.82419 2089 ft 116 kts 119°
2026-04-27 23:53 41.23328 -70.81498 2088 ft 110 kts 119°
2026-04-27 23:53 41.23019 -70.80599 2088 ft 106 kts 102°
2026-04-27 23:54 41.23140 -70.79665 2090 ft 106 kts 59°
2026-04-27 23:54 41.23658 -70.78967 2094 ft 110 kts 36°
2026-04-27 23:54 41.24253 -70.78299 2100 ft 113 kts 38°
2026-04-27 23:54 41.24853 -70.77616 2105 ft 114 kts 38°
2026-04-27 23:55 41.25459 -70.76929 2085 ft 116 kts 38°
2026-04-27 23:55 41.26085 -70.76220 2031 ft 120 kts 38°
2026-04-27 23:55 41.26717 -70.75503 2009 ft 118 kts 38°
2026-04-27 23:55 41.27339 -70.74799 2009 ft 117 kts 38°
2026-04-27 23:56 41.27955 -70.74101 2008 ft 116 kts 38°
2026-04-27 23:56 41.28568 -70.73405 2006 ft 115 kts 38°
2026-04-27 23:56 41.29179 -70.72714 2006 ft 115 kts 38°
2026-04-27 23:56 41.29766 -70.72045 1999 ft 105 kts 38°
2026-04-27 23:57 41.30297 -70.71442 2002 ft 97 kts 38°
2026-04-27 23:57 41.30799 -70.70873 1995 ft 93 kts 38°
2026-04-27 23:57 41.31295 -70.70311 1936 ft 96 kts 38°
2026-04-27 23:57 41.31817 -70.69721 1828 ft 101 kts 38°
2026-04-27 23:58 41.32365 -70.69098 1699 ft 106 kts 38°
2026-04-27 23:58 41.32932 -70.68456 1558 ft 108 kts 38°
2026-04-27 23:58 41.33510 -70.67799 1411 ft 110 kts 38°
2026-04-27 23:58 41.34083 -70.67147 1264 ft 108 kts 38°
2026-04-27 23:59 41.34649 -70.66504 1120 ft 106 kts 38°
2026-04-27 23:59 41.35209 -70.65867 978 ft 106 kts 38°
2026-04-27 23:59 41.35754 -70.65248 844 ft 98 kts 38°
2026-04-27 23:59 41.36251 -70.64681 718 ft 92 kts 37°
2026-04-28 00:00 41.36727 -70.64142 593 ft 88 kts 38°
2026-04-28 00:00 41.37180 -70.63626 479 ft 86 kts 38°
2026-04-28 00:00 41.37636 -70.63106 364 ft 87 kts 39°
2026-04-28 00:00 41.38101 -70.62572 261 ft 87 kts 40°
2026-04-28 00:01 41.38554 -70.62064 137 ft 86 kts 39°
2026-04-28 00:01 41.38983 -70.61575 63 ft 75 kts 39°
2026-04-28 00:01 41.39329 -70.61179 61 ft 47 kts 41°
2026-04-28 00:01 41.39463 -70.61010 66 ft 12 kts 72°
2026-04-28 00:02 41.39421 -70.60921 62 ft 2 kts 149°
2026-04-28 00:02 41.39359 -70.60949 64 ft 26 kts 218°
2026-04-28 00:02 41.39233 -70.61099 62 ft 43 kts 221°
2026-04-28 00:03 41.39010 -70.61347 60 ft 29 kts 217°
2026-04-28 00:03 41.38877 -70.61371 57 ft 3 kts 150°
2026-04-28 00:03 41.38877 -70.61370 58 ft 0 kts 150°